"Pseudo-MPEC" for P11WLhm

Created 2024 Aug 7 21:22:05 UT using Find_Orb

Click here for an explanation of pseudo-MPECs

 
 Astrometry: 
     P11WLhm* C2024 08 01.38746320 39 35.210-32 57 12.89   ~81Gq 21.25wXNEOCPF51
     P11WLhm  C2024 08 01.39723820 39 34.706-32 57 12.65   ~81Gq 21.23wXNEOCPF51
     P11WLhm  C2024 08 01.41677720 39 33.684-32 57 12.19   ~81Gq 21.60wXNEOCPF51
     P11WLhm 3C2024 08 07.40406920 34 35.943-32 52 04.99   ~87Bq 21.41GVNEOCPT14
     P11WLhm 3C2024 08 07.40527720 34 35.878-32 52 04.87   ~87Bq 21.49GVNEOCPT14
     P11WLhm 3C2024 08 07.40648720 34 35.819-32 52 04.81   ~87Bq 21.51GVNEOCPT14

Station data:
(F51) Pan-STARRS 1, Haleakala  (N20.707234 W156.255910)  US/Hawaii.
   Observers J. Bulger, T. Lowe, A. Schultz, M. Willman. Measurers K.
   Chambers, S. Chastel, T. de Boer, L. Denneau, J. Fairlamb, H. Flewelling,
   M. Huber, C.-C. Lin, E. Magnier, Y. Ramanjooloo, R. Wainscoat, R. Weryk.
   1.8-m Ritchey-Chrétien + CCD.
(T14) Mauna Kea-UH/Tholen NEO Follow-Up (CFHT)  (N19.825252 W155.468876)
   US/Hawaii.  Observer R. Weryk. 3.6-m Canada-France-Hawaii Telescope.

Orbital elements:  P11WLhm
   Perihelion 2023 Oct 6.30530 +/- 616 TT =  7:19:38 (JD 2460223.80530)
Epoch 2024 Aug  7.0 TT = JDT 2460529.5   Earth MOID: 0.9478   Ju: 0.4691
M   6.47006237 +/- 60               Sa: 0.4510                   AutoNEOCP
n   0.02116511 +/- 0.0317           Peri.  224.81619 +/- 90
a  12.9436176 +/- 12.9              Node   347.29083 +/- 19
e   0.8517126 +/- 0.229             Incl.   15.07845 +/- 17
P  46.56756                H 16.09  G  0.15   U 10.5  SR
q 1.91937515 +/- 0.58    Q 23.9678600 +/- 15.1            (J2000 ecliptic)
From 6 observations 2024 Aug. 1-7; mean residual 0".06
Residuals in arcseconds: 
240801 F51  .13-  .07+    240801 F51  .11+  .09-    240807 T14  .03-  .02+    
240801 F51  .01+  .03+    240807 T14  .04+  .01-    240807 T14  .01-  .01-    

Ephemerides (geocentric):
Date (UTC) HH   RA             Dec           delta  r     elong  mag " sig PA
---- --------  ------------   ------------  ------ ------ -----  --- --------
2024 08 07 21  20 34 13.396   -32 51 28.24  2.7476 3.7223 161.3 21.6 6.50 164
2024 08 07 22  20 34 11.409   -32 51 25.15  2.7480 3.7226 161.3 21.6 6.98 163
2024 08 07 23  20 34 09.424   -32 51 22.04  2.7485 3.7229 161.2 21.6 7.47 163
2024 08 08 00  20 34 07.440   -32 51 18.92  2.7489 3.7232 161.2 21.6 7.97 162
2024 08 08 01  20 34 05.457   -32 51 15.79  2.7494 3.7236 161.2 21.6 8.47 162
2024 08 08 02  20 34 03.475   -32 51 12.65  2.7499 3.7239 161.1 21.6 8.98 161
2024 08 08 03  20 34 01.494   -32 51 09.50  2.7503 3.7242 161.1 21.6 9.50 161
2024 08 08 04  20 33 59.515   -32 51 06.34  2.7508 3.7245 161.1 21.6 10.0 160
2024 08 08 05  20 33 57.536   -32 51 03.17  2.7512 3.7248 161.0 21.6 10.6 160
2024 08 08 06  20 33 55.559   -32 50 59.98  2.7517 3.7252 161.0 21.6 11.1 159
2024 08 08 07  20 33 53.583   -32 50 56.79  2.7522 3.7255 161.0 21.6 11.6 159
2024 08 08 08  20 33 51.608   -32 50 53.58  2.7526 3.7258 161.0 21.6 12.2 158
2024 08 08 09  20 33 49.635   -32 50 50.36  2.7531 3.7261 160.9 21.6 12.7 158
2024 08 08 10  20 33 47.662   -32 50 47.13  2.7535 3.7265 160.9 21.6 13.3 158
2024 08 08 11  20 33 45.691   -32 50 43.89  2.7540 3.7268 160.9 21.6 13.9 157
2024 08 08 12  20 33 43.721   -32 50 40.64  2.7545 3.7271 160.8 21.6 14.4 157
2024 08 08 13  20 33 41.752   -32 50 37.37  2.7549 3.7274 160.8 21.6 15.0 157
2024 08 08 14  20 33 39.785   -32 50 34.10  2.7554 3.7278 160.8 21.6 15.6 156
2024 08 08 15  20 33 37.819   -32 50 30.81  2.7559 3.7281 160.7 21.6 16.2 156
2024 08 08 16  20 33 35.853   -32 50 27.51  2.7563 3.7284 160.7 21.6 16.8 156
2024 08 08 17  20 33 33.889   -32 50 24.21  2.7568 3.7287 160.7 21.6 17.4 156
2024 08 08 18  20 33 31.927   -32 50 20.89  2.7573 3.7290 160.7 21.6 18.0 155
2024 08 08 19  20 33 29.965   -32 50 17.56  2.7577 3.7294 160.6 21.6 18.7 155
2024 08 08 20  20 33 28.005   -32 50 14.21  2.7582 3.7297 160.6 21.6 19.3 155
2024 08 08 21  20 33 26.046   -32 50 10.86  2.7587 3.7300 160.6 21.6 19.9 155
2024 08 08 22  20 33 24.088   -32 50 07.50  2.7591 3.7303 160.5 21.6 20.6 155
2024 08 08 23  20 33 22.132   -32 50 04.12  2.7596 3.7307 160.5 21.6 21.2 154
2024 08 09 00  20 33 20.176   -32 50 00.74  2.7601 3.7310 160.5 21.6 21.9 154
2024 08 09 01  20 33 18.222   -32 49 57.34  2.7605 3.7313 160.4 21.6 22.5 154
2024 08 09 02  20 33 16.269   -32 49 53.93  2.7610 3.7316 160.4 21.6 23.2 154
2024 08 09 03  20 33 14.318   -32 49 50.51  2.7615 3.7320 160.4 21.6 23.9 154
2024 08 09 04  20 33 12.367   -32 49 47.08  2.7619 3.7323 160.3 21.6 24.6 153
2024 08 09 05  20 33 10.418   -32 49 43.64  2.7624 3.7326 160.3 21.6 25.3 153
2024 08 09 06  20 33 08.470   -32 49 40.18  2.7629 3.7329 160.3 21.6 26.0 153
2024 08 09 07  20 33 06.524   -32 49 36.72  2.7633 3.7333 160.2 21.6 26.7 153
2024 08 09 08  20 33 04.578   -32 49 33.24  2.7638 3.7336 160.2 21.6 27.4 153
2024 08 09 09  20 33 02.634   -32 49 29.75  2.7643 3.7339 160.2 21.6 28.1 153
2024 08 09 10  20 33 00.691   -32 49 26.26  2.7648 3.7342 160.2 21.6 28.8 152
2024 08 09 11  20 32 58.750   -32 49 22.75  2.7652 3.7345 160.1 21.6 29.5 152
2024 08 09 12  20 32 56.809   -32 49 19.23  2.7657 3.7349 160.1 21.6 30.3 152
2024 08 09 13  20 32 54.870   -32 49 15.70  2.7662 3.7352 160.1 21.6 31.0 152
2024 08 09 14  20 32 52.933   -32 49 12.15  2.7667 3.7355 160.0 21.6 31.8 152
2024 08 09 15  20 32 50.996   -32 49 08.60  2.7671 3.7358 160.0 21.6 32.5 152
2024 08 09 16  20 32 49.061   -32 49 05.04  2.7676 3.7362 160.0 21.6 33.3 152
2024 08 09 17  20 32 47.127   -32 49 01.46  2.7681 3.7365 159.9 21.6 34.0 151
2024 08 09 18  20 32 45.194   -32 48 57.87  2.7686 3.7368 159.9 21.6 34.8 151
2024 08 09 19  20 32 43.263   -32 48 54.28  2.7690 3.7371 159.9 21.6 35.6 151
2024 08 09 20  20 32 41.333   -32 48 50.67  2.7695 3.7375 159.8 21.6 36.4 151